User: anonymous
Location: Santa Barbara
(34.4500°N, 119.7700°W)
Time: 14:44:02
(UTC-07:00)
Language:

Cosmos 1892 Rocket - Orbit

View from above orbital plane
View from above orbital plane
View from above satellite
View from above satellite

Ground track
Ground track

The orbit data is extracted from the following two-line orbital elements,

1 18422U 87088B   14261.50019420  .00000474  00000-0  55995-4 0  3461
2 18422 082.5136 036.2018 0021107 138.8007 289.2408 14.82434423453237
Epoch (UTC): 18 September 2014 12:00:16
Eccentricity: 0.0021107
inclination: 82.5136°
perigee height: 607 km
apogee height: 636 km
right ascension of ascending node: 36.2018°
argument of perigee: 138.8007°
revolutions per day: 14.82434423
mean anomaly at epoch: 289.2408°
orbit number at epoch: 45323

The dashed part of the orbit path shows where the satellite is in the earth's shadow,  

DLR